Volver al catálogo

SL-12 DEB

LostHEO
NORAD 41811·DEBRIS·🇷🇺 Russia

Lanzado Dec 25, 2006 desde Baikonur Cosmodrome

Loading…

Próximos Pases (próximas 24 horas)

TLE

ObsoletoSource: Space-Track

Época: Feb 9, 2023, 23:13 UTC

1 41811U 06062R   23040.96797287  .00003822  00000-0  61688-2 0  9999
2 41811  64.8817 226.7712 5097872 277.8106  29.6080  5.22592322115450

Sigue SL-12 DEB en tiempo real con AllMySat

Download on the App Store